Location: Fontevrault
(47.1823°N, 0.0493°E)
Time: 13:46:56
(UTC+00:00)

Cosmos 1741 Rocket - Pass Details

Date: 16 June 2021
Orbit: 761 x 783 km, 74.0° (Epoch: 04 August)

Event Time Altitude Azimuth Distance (km) Brightness Sun altitude
Rises 21:35:43 0° 334° (NNW) 3,245 9.2 -12.2°
Reaches altitude 10° 21:38:07 10° 331° (NNW) 2,318 8.0 -12.5°
Maximum altitude 21:43:17 60° 253° (WSW) 883 4.4 -12.9°
Enters shadow 21:47:31 15° 177° (S) 1,961 5.6 -13.3°
